TJS-23

Last updated on Sat Apr 11 2026 00:02:56 GMT+0000 (Coordinated Universal Time)

1 67226U 25306A 26099.78899722 .00000014 00000+0 00000+0 0 9990 2 67226 5.7443 297.8280 0006834 120.5485 239.3395 1.00277903 1206
UTC large
Height (km)
Speed (km/s)
/
Latitude / Longitude
Inclination (degrees)
Orbital Period (minutes)
Azimuth
Elevation
Range (km)
Doppler Factor

Next 0 passes for location: London (51.5072 / 0.1276)

Sorry there are no passes over London.
TJS-23